Tracking 19903 objects as of 16-Oct-2019
HD Live streaming from Space Station
objects crossing your sky now

SL-8 DEB

Track SL-8 DEB now!
10-day predictions


NORAD ID: 21406
Int'l Code: 1991-009BV
Perigee: 1,440.7 km
Apogee: 1,660.1 km
Inclination: 73.9 °
Period: 116.9 minutes
Semi major axis: 7921 km
RCS: 0.1021 m2 (medium)
Launch date: February 12, 1991
Source: Commonwealth of Independent States (former USSR) (CIS)
Launch site: PLESETSK MISSILE AND SPACE COMPLEX (PKMTR)

Note: This is SATELLITE DEBRIS
aabbcc
Your satellite tracking list
Your tracking list is empty




NASA's NSSDC Master Catalog

Two Line Element Set (TLE):
1 21406U 91009BV  19288.57958425  .00000118  00000-0  10871-2 0  9994
2 21406  73.9170 352.7866 0138474 318.6151 155.0706 12.31404426280934
Source of the keplerian elements: AFSPC